Regional Weather Roundup
Issued by NWS

Home | Current Version | Previous Version | Text Only | Print | Product List | Glossary On
Versions: 1 2 3 4 5 6 7 8 9 10 11 12 13 14 15 16 17 18 19 20 21 22 23 24 25 26 27
000
ASUS44 KJAN 180510
RWRMS

MISSISSIPPI HOURLY WEATHER ROUNDUP
NATIONAL WEATHER SERVICE JACKSON MS
1200 AM CDT WED OCT 18 2017

NOTE: "FAIR: INDICATES FEW OR NO CLOUDS BELOW 12,000 FEET WITH NO
SIGNIFICANT WEATHER AND/OR OBSTRUCTIONS TO VISIBILITY.

MSZ001>002-007>008-010>013-018>021-025>028-034>036-180600-
NORTHWEST MISSISSIPPI

CITY           SKY/WX    TMP DP  RH WIND       PRES   REMARKS
BATESVILLE     FAIR      46  44  95 CALM      30.24F
CLARKSDALE       N/A     54  52  94 E3        30.23F
CLEVELAND      FAIR      55  48  75 E6        30.22S
GREENWOOD      CLEAR     51  48  89 CALM      30.22S
GREENVILLE     CLEAR     53  45  74 E5        30.21S
OXFORD         FAIR      46  46 100 SE5       30.25F
TUNICA           N/A    N/A N/A N/A CALM      30.24F
WINONA         FAIR      47  47 100 CALM      30.23S
$$

MSZ003>006-009-014>017-022>024-029>033-037>039-180600-
NORTHEAST MISSISSIPPI

CITY           SKY/WX    TMP DP  RH WIND       PRES   REMARKS
COLUMBUS AFB   CLEAR     48  48  99 CALM      30.24S
CORINTH        FOG       46  45  93 CALM      30.24F VSB 1/4
GOLDN TRIANGLE CLEAR     55  48  77 E6        30.24F
STARKVILLE     FAIR      50  48  93 E3        30.25S
TUPELO         CLEAR     49  46  90 CALM      30.25S
$$

MSZ040-058-180600-
CENTRAL MISSISSIPPI

CITY           SKY/WX    TMP DP  RH WIND       PRES   REMARKS
JACKSON INTL   CLEAR     58  49  72 E6        30.21S
JACKSON HAWKNS CLEAR     59  50  72 E6        30.22S
MADISON        FAIR      59  50  72 E3        30.21S
MERIDIAN KEY   CLEAR     50  49  96 CALM      30.23F
MERIDIAN NAS   CLEAR     50  48  93 CALM      30.24S
RAYMOND        FAIR      50  48  93 CALM      30.21S FOG
VICKSBURG VKS  CLEAR     54  52  94 CALM      30.21S
$$

MSZ059>079-180600-
SOUTH MISSISSIPPI

CITY           SKY/WX    TMP DP  RH WIND       PRES   REMARKS
HATTIESBURG    CLEAR     54  53  97 CALM      30.22F
LAUREL         FAIR      52  52 100 CALM      30.22F
MCCOMB         CLEAR     59  52  77 CALM      30.20S
NATCHEZ        CLEAR     61  53  75 E3        30.19F
PINE BELT      CLEAR     55  51  86 CALM      30.21F
$$

MSZ080>082-180600-
COASTAL MISSISSIPPI

CITY           SKY/WX    TMP DP  RH WIND       PRES   REMARKS
BILOXI         CLEAR     62  54  74 NE9       30.17F
PASCAGOULA     CLEAR     57  53  86 N3        30.18F
GULFPORT       CLEAR     63  54  72 NE5       30.17F
$$

LAZ007>009-015>016-023>026-180600-
NORTHEAST LOUISIANA

CITY           SKY/WX    TMP DP  RH WIND       PRES   REMARKS
BASTROP        FAIR      49  49  98 CALM      30.21S
TALLULAH/VBURG CLEAR     55  52  89 E5        30.21R
VIDALIA          N/A    N/A N/A N/A MISG      30.18S
$$




USA.gov is the U.S. government's official web portal to all federal, state and local government web resources and services.